Wind_Speed
11 12 12 12 12 12 13 13 13 12 12 12 12 12 12 12 11 11 11 11 11 11 11 11 10 10 9 9 9 9 9 8 8 8 8 7 7 7 6 6 6 5 6
12 13 13 13 13 13 13 13 13 14 13 13 13 13 13 13 13 12 12 12 12 12 12 12 11 11 10 10 10 9 9 10 10 9 9 8 8 8 8 7 7 7 7
14 14 14 15 14 14 14 13 14 14 14 14 14 14 14 14 13 13 12 12 13 13 13 12 12 12 11 11 10 10 10 10 11 11 10 10 9 9 9 9 9 9 8
15 15 15 15 15 15 15 15 14 15 15 15 15 15 15 14 14 13 13 13 13 13 14 13 13 13 12 12 12 11 11 12 12 12 12 11 11 11 10 10 10 10 10
16 16 16 16 16 16 16 16 16 16 16 16 15 15 15 15 15 14 14 14 14 14 15 15 14 14 13 13 12 12 12 12 13 13 13 13 13 13 12 12 12 12 11
17 17 17 17 17 17 17 17 17 17 17 17 16 16 15 16 15 16 16 15 15 15 15 15 15 14 14 14 13 13 13 13 13 13 14 14 14 14 14 13 13 13 13
18 18 18 18 18 18 18 18 18 18 18 18 18 17 16 16 16 16 16 16 16 16 16 16 15 15 15 15 15 15 15 14 13 14 14 15 15 15 15 15 15 14 14
19 19 19 19 19 19 19 19 20 20 19 19 19 19 18 18 18 17 17 17 17 17 17 17 17 17 17 16 16 16 16 16 15 15 15 16 16 16 16 16 17 17 17
21 21 21 21 21 21 21 21 21 21 20 20 20 20 20 20 19 19 18 18 18 18 19 18 18 18 18 17 17 17 17 17 17 16 16 17 17 17 17 17 18 18 18
23 22 22 22 22 22 22 22 22 22 22 22 22 21 21 21 21 20 20 20 20 19 19 20 19 19 19 19 19 19 18 18 18 17 17 17 17 18 18 18 18 18 19
25 24 24 24 24 24 25 24 24 24 24 24 24 23 23 23 23 22 21 21 21 21 21 21 21 20 20 20 20 20 21 21 20 20 20 19 19 19 19 19 19 20 20
26 26 25 25 26 26 26 26 26 26 26 26 26 26 25 25 25 24 24 24 24 23 23 23 23 22 22 22 22 23 23 23 23 22 22 22 21 21 21 21 21 22 22
28 28 27 27 27 27 27 28 28 28 29 29 29 28 28 27 27 27 26 26 26 26 25 25 25 25 24 24 25 25 25 25 25 25 25 24 24 24 24 24 24 24 24
30 29 29 29 29 29 29 30 30 31 31 31 32 31 30 29 29 29 29 28 28 28 27 27 27 27 27 26 26 27 27 27 27 27 26 27 26 26 26 26 26 26 26
31 31 31 31 31 31 32 32 32 33 33 33 33 33 33 32 32 31 31 31 31 31 30 30 29 29 28 28 28 28 29 29 29 29 29 29 29 29 29 29 29 29 29
34 34 33 33 33 33 33 33 34 34 35 34 35 35 35 35 35 34 33 34 34 33 33 32 32 31 31 31 30 31 31 32 32 31 31 31 31 31 32 32 31 31 31
36 36 35 35 35 35 35 35 35 36 36 36 36 37 37 37 36 36 36 36 36 36 36 35 34 34 33 33 33 33 33 33 34 34 33 34 34 33 33 34 34 34 33
36 37 37 37 37 37 37 36 37 36 37 37 38 38 38 38 38 37 37 38 38 37 37 37 36 36 36 36 36 35 35 35 35 35 35 35 36 35 35 35 36 36 36
37 38 38 38 38 38 38 38 38 38 38 39 39 40 40 39 40 39 39 39 39 39 39 38 38 38 38 38 38 37 37 37 37 37 37 38 38 38 37 37 37 37 38
38 39 39 39 39 39 39 39 39 39 39 40 41 41 41 41 41 41 41 41 40 40 40 40 40 40 40 40 39 39 39 39 39 39 39 40 40 40 40 40 39 39 39
38 39 39 40 40 40 40 40 40 40 40 41 42 42 42 42 42 42 42 42 42 41 41 41 41 41 41 41 41 41 41 40 41 41 41 41 41 42 42 42 41 42 42
39 39 40 40 41 41 41 41 41 41 41 41 41 42 42 43 43 43 43 44 43 43 42 42 42 42 42 43 43 43 43 42 41 41 41 42 43 43 44 44 43 43 43
39 39 40 41 41 42 42 43 42 42 42 42 42 42 43 44 44 44 44 45 45 44 44 44 44 43 43 44 44 44 44 44 44 44 43 44 44 45 45 46 47 46 46
38 39 40 41 42 42 42 43 43 43 42 42 43 43 44 44 45 45 45 46 46 46 45 46 46 46 45 46 46 46 46 46 47 46 46 46 46 47 47 47 48 48 48
39 40 41 41 42 42 42 43 44 44 43 43 43 43 44 44 44 45 45 46 46 46 46 47 47 47 47 47 46 47 47 48 48 48 48 49 48 48 49 49 50 50 51
40 40 41 41 42 42 43 44 44 44 44 43 43 43 43 44 44 44 45 45 46 46 47 47 48 48 47 47 47 48 49 49 49 49 50 50 50 50 51 51 51 52 52
Wind_Direction
260 257 256 255 254 254 253 251 250 250 251 251 252 253 254 253 251 250 248 247 246 243 239 240 243 240 239 241 241 240 239 238 240 240 241 243 242 239 238 239 239 242 242
260 259 258 258 257 256 255 256 254 252 252 254 255 254 253 251 251 252 249 247 246 244 242 241 243 242 241 242 244 244 241 241 242 242 243 244 245 244 243 244 245 246 248
262 261 260 259 258 257 256 256 255 254 254 255 255 254 253 253 253 252 251 249 246 243 242 243 243 242 242 242 244 245 242 242 244 244 245 246 246 247 247 248 249 249 250
263 263 262 260 259 258 257 258 257 256 256 257 257 256 253 252 252 252 252 250 247 245 243 243 243 243 243 243 245 247 246 245 245 245 245 244 245 246 247 248 249 251 251
263 263 263 262 261 259 258 258 258 257 256 256 258 256 253 252 253 253 253 251 247 246 245 243 241 242 242 242 244 247 248 249 246 246 246 245 246 246 248 248 250 252 252
261 263 263 263 262 260 259 257 256 256 256 255 255 255 254 253 254 254 254 252 249 246 244 242 240 239 240 242 244 245 248 249 247 246 247 247 248 248 248 249 250 252 253
260 263 264 263 261 260 258 256 254 255 255 255 255 255 254 252 252 254 254 252 250 247 244 242 242 242 243 244 246 246 247 248 247 246 247 248 250 251 249 250 251 252 254
260 263 264 263 262 260 258 256 254 255 256 256 256 256 255 255 254 254 252 250 249 247 246 245 243 244 246 246 246 247 248 248 250 252 250 251 251 253 253 251 252 252 253
260 262 264 264 263 260 257 256 255 254 254 255 256 256 257 257 255 253 251 249 249 246 245 246 245 246 247 247 248 248 249 249 251 254 253 253 254 255 255 255 255 255 255
258 261 262 263 262 260 258 256 255 255 254 254 256 256 256 256 255 253 252 249 248 247 246 247 247 247 248 248 248 250 250 252 252 254 254 254 256 257 257 257 258 258 256
259 261 262 261 261 260 259 257 256 256 255 254 254 255 256 255 254 253 252 249 248 248 248 249 249 251 250 249 249 250 252 253 254 253 254 255 256 258 258 258 258 258 258
259 261 262 262 262 260 259 257 256 256 256 255 254 256 254 254 253 252 252 251 251 251 252 251 251 251 251 250 250 251 253 254 253 253 255 256 257 260 260 258 259 259 260
259 260 261 261 262 261 260 259 258 257 257 256 256 257 255 254 253 252 252 253 253 253 253 253 253 254 254 254 253 253 254 255 254 255 256 257 258 259 260 260 260 261 262
259 260 260 261 262 262 262 261 261 260 258 257 257 257 256 254 253 252 252 253 253 252 252 253 255 256 256 256 255 254 254 255 256 256 257 258 259 260 259 261 261 261 262
259 260 260 260 261 261 262 262 261 261 259 259 258 257 257 255 253 252 252 252 253 253 253 254 255 256 257 258 258 257 256 256 257 258 258 258 260 261 261 261 261 261 261
260 260 260 260 260 261 262 262 262 262 260 259 258 257 257 257 255 255 254 253 253 255 255 255 255 255 256 258 259 260 259 258 258 258 259 259 261 262 262 262 262 262 262
259 260 261 261 261 262 262 263 263 262 261 260 259 258 258 258 257 256 255 254 254 255 255 256 256 256 257 258 259 260 260 260 259 259 260 261 261 262 263 262 262 262 263
260 260 261 262 261 261 262 261 262 261 262 261 260 260 259 258 258 257 257 256 255 255 255 256 257 258 259 259 260 261 261 261 260 260 260 261 262 263 263 263 263 263 263
261 261 261 262 261 261 261 261 262 263 263 263 262 260 259 259 259 258 258 258 257 256 255 256 257 257 259 259 260 261 261 262 262 261 261 262 262 263 264 264 263 263 264
262 262 262 262 262 262 261 262 263 264 263 263 262 260 259 260 259 258 258 258 258 257 257 256 257 258 258 259 259 260 261 263 263 263 263 263 263 263 263 264 263 263 264
263 263 263 263 263 263 262 263 263 262 262 262 261 260 260 260 259 259 259 258 258 258 257 257 257 258 259 259 260 261 261 263 263 263 264 264 264 263 263 263 263 264 264
264 264 263 263 264 264 263 262 262 262 261 261 261 261 262 261 260 259 259 258 257 258 257 257 258 259 260 260 261 261 262 263 263 263 264 265 265 264 264 264 263 264 264
265 265 264 263 263 264 263 262 262 262 262 263 263 262 262 262 261 260 259 259 258 258 257 257 258 259 261 262 262 262 263 263 263 264 265 265 265 265 265 265 264 264 264
265 265 264 264 263 264 263 263 263 262 262 262 263 262 261 261 262 261 260 259 259 258 257 257 258 260 261 262 262 263 263 264 265 265 266 266 266 266 266 266 266 266 265
266 265 265 264 264 264 264 263 262 263 262 262 262 262 262 262 262 261 260 259 258 258 258 258 259 260 261 262 263 263 264 265 266 266 267 267 268 268 268 268 267 267 267
267 266 266 266 265 265 264 263 263 263 262 262 262 262 262 263 262 261 260 259 258 258 258 259 259 261 261 262 264 265 265 266 267 267 268 268 268 269 269 269 268 268 268
Height
5828 5828 5828 5828 5829 5829 5829 5830 5830 5830 5830 5831 5831 5831 5831 5831 5831 5831 5831 5831 5831 5831 5832 5832 5833 5833 5834 5834 5835 5835 5835 5836 5837 5837 5837 5838 5838 5838 5839 5839 5839 5840 5840
5826 5826 5826 5826 5826 5826 5827 5827 5827 5828 5828 5828 5828 5828 5828 5828 5828 5828 5828 5828 5828 5829 5829 5830 5831 5831 5832 5832 5833 5833 5834 5834 5835 5835 5836 5836 5837 5837 5837 5838 5838 5838 5839
5823 5823 5823 5823 5823 5823 5824 5824 5825 5825 5825 5825 5825 5826 5826 5826 5826 5825 5825 5825 5826 5826 5827 5827 5828 5829 5830 5830 5831 5831 5832 5832 5833 5834 5834 5834 5835 5835 5836 5836 5836 5837 5837
5820 5820 5820 5820 5820 5820 5821 5821 5821 5822 5822 5822 5822 5822 5823 5823 5823 5823 5823 5823 5823 5823 5824 5825 5826 5826 5827 5828 5828 5829 5830 5830 5831 5831 5832 5832 5833 5833 5834 5834 5835 5835 5836
5817 5817 5817 5817 5817 5817 5818 5818 5818 5818 5819 5819 5819 5819 5819 5819 5820 5820 5820 5820 5820 5820 5821 5822 5823 5824 5824 5825 5826 5826 5827 5828 5828 5829 5829 5830 5830 5831 5831 5832 5832 5833 5834
5813 5813 5813 5814 5814 5814 5814 5814 5815 5815 5815 5815 5815 5815 5816 5816 5816 5816 5817 5817 5817 5817 5818 5819 5820 5821 5821 5822 5823 5824 5824 5825 5825 5826 5826 5827 5828 5828 5829 5829 5830 5831 5831
5810 5809 5809 5810 5810 5810 5810 5810 5811 5811 5811 5811 5811 5812 5812 5812 5812 5813 5813 5813 5814 5814 5815 5816 5817 5817 5818 5819 5820 5821 5821 5822 5822 5823 5823 5824 5825 5825 5826 5827 5827 5828 5828
5805 5805 5805 5805 5805 5806 5806 5806 5807 5807 5807 5807 5808 5808 5808 5808 5808 5809 5809 5810 5810 5811 5812 5812 5813 5814 5815 5816 5816 5817 5818 5818 5819 5820 5820 5821 5821 5822 5823 5823 5824 5825 5825
5800 5800 5801 5801 5801 5801 5801 5802 5802 5803 5803 5803 5803 5804 5804 5804 5804 5805 5805 5806 5806 5807 5808 5809 5809 5810 5811 5812 5813 5813 5814 5815 5815 5816 5817 5817 5818 5819 5819 5820 5820 5821 5821
5795 5795 5795 5796 5796 5796 5796 5797 5797 5798 5798 5799 5799 5799 5799 5800 5800 5800 5801 5802 5802 5803 5804 5804 5805 5806 5807 5808 5809 5810 5810 5811 5811 5812 5813 5814 5814 5815 5815 5816 5817 5817 5818
5790 5790 5790 5790 5790 5791 5791 5791 5792 5792 5793 5793 5794 5794 5794 5795 5795 5796 5796 5797 5798 5799 5800 5800 5801 5802 5803 5804 5804 5805 5806 5806 5807 5808 5809 5809 5810 5811 5811 5812 5813 5813 5814
5784 5784 5784 5784 5784 5785 5785 5786 5786 5786 5787 5787 5788 5788 5789 5789 5790 5791 5791 5792 5793 5794 5795 5795 5796 5797 5798 5799 5799 5800 5801 5801 5802 5803 5804 5805 5806 5806 5807 5807 5808 5808 5809
5777 5778 5778 5778 5778 5778 5779 5779 5780 5780 5781 5781 5782 5782 5783 5783 5784 5785 5786 5786 5787 5788 5789 5790 5791 5791 5792 5793 5794 5795 5795 5796 5797 5798 5799 5800 5800 5801 5801 5802 5803 5803 5804
5771 5771 5771 5771 5772 5772 5772 5773 5773 5773 5774 5774 5775 5775 5776 5777 5778 5778 5779 5780 5781 5782 5783 5784 5785 5786 5786 5787 5788 5789 5790 5790 5791 5792 5793 5794 5795 5795 5796 5796 5797 5798 5798
5763 5764 5764 5764 5765 5765 5765 5765 5766 5766 5767 5767 5767 5768 5769 5770 5770 5771 5772 5773 5774 5775 5776 5777 5778 5779 5780 5781 5782 5783 5783 5784 5785 5786 5787 5787 5788 5789 5790 5790 5791 5791 5792
5755 5755 5756 5756 5756 5757 5757 5757 5758 5758 5759 5759 5759 5760 5761 5762 5762 5763 5764 5765 5766 5767 5768 5770 5771 5772 5773 5774 5775 5775 5776 5777 5777 5778 5779 5780 5781 5782 5783 5783 5784 5784 5785
5746 5746 5747 5747 5748 5748 5749 5749 5749 5749 5750 5750 5751 5752 5752 5753 5754 5755 5756 5757 5758 5759 5760 5761 5763 5764 5765 5766 5767 5768 5768 5769 5770 5771 5771 5772 5773 5774 5775 5775 5776 5777 5777
5737 5737 5737 5738 5738 5739 5739 5740 5740 5740 5741 5741 5742 5742 5743 5744 5744 5745 5746 5748 5749 5750 5751 5753 5754 5756 5757 5758 5758 5759 5760 5761 5762 5762 5763 5764 5764 5765 5766 5767 5767 5768 5769
5727 5728 5728 5728 5729 5729 5730 5730 5731 5731 5731 5731 5732 5732 5733 5734 5735 5736 5737 5738 5739 5740 5742 5743 5745 5746 5747 5748 5749 5750 5751 5752 5753 5754 5754 5755 5755 5756 5757 5758 5758 5759 5760
5718 5718 5718 5719 5719 5719 5720 5720 5721 5721 5721 5721 5722 5722 5723 5724 5725 5725 5726 5727 5729 5730 5732 5733 5735 5736 5737 5738 5739 5740 5741 5742 5743 5744 5744 5745 5746 5746 5747 5748 5748 5749 5750
5708 5708 5708 5709 5709 5709 5709 5710 5710 5711 5711 5711 5711 5712 5712 5713 5714 5715 5716 5717 5718 5720 5721 5723 5724 5726 5727 5728 5729 5730 5731 5732 5732 5733 5734 5734 5735 5736 5736 5737 5738 5739 5740
5698 5698 5698 5698 5698 5698 5699 5699 5699 5699 5700 5700 5700 5701 5701 5702 5703 5704 5705 5706 5707 5709 5710 5712 5713 5715 5716 5717 5718 5719 5720 5722 5722 5723 5723 5723 5724 5724 5725 5726 5727 5728 5728
5687 5687 5687 5687 5687 5687 5687 5687 5687 5688 5689 5689 5690 5690 5690 5691 5692 5693 5694 5695 5696 5698 5699 5701 5702 5703 5705 5706 5706 5707 5708 5710 5711 5712 5712 5712 5712 5713 5713 5714 5714 5715 5716
5677 5676 5676 5676 5676 5676 5676 5676 5676 5676 5677 5678 5678 5678 5679 5679 5679 5680 5682 5683 5684 5685 5687 5688 5690 5691 5692 5693 5694 5695 5696 5697 5698 5700 5700 5700 5700 5700 5701 5701 5701 5702 5703
5665 5665 5665 5664 5664 5664 5664 5664 5664 5664 5665 5666 5666 5666 5667 5667 5667 5668 5669 5670 5672 5673 5674 5676 5677 5678 5680 5681 5682 5683 5683 5684 5685 5686 5688 5688 5687 5687 5687 5688 5688 5688 5689
5654 5654 5653 5653 5653 5652 5652 5652 5652 5652 5653 5653 5654 5654 5654 5655 5655 5655 5656 5657 5659 5660 5662 5663 5664 5666 5667 5668 5669 5670 5670 5671 5672 5673 5674 5675 5675 5674 5674 5674 5674 5674 5674